Palmdale, CA

12:29 AM PDT on April 28, 2017 (GMT -0700)
Palmdale Af Plant 42

Weather History for KPMD - May, 2011

Change the Weather History Date:

Wednesday, May 11, 2011

  Actual Average Record
Temperature  
Mean Temperature 65 °F 66 °F  
Max Temperature 81 °F 82 °F 102 °F (1996)
Min Temperature 48 °F 51 °F 33 °F (1983)
Degree Days  
Heating Degree Days 0 2  
Month to date heating degree days 41 36  
Since 1 July heating degree days 2912 2886  
Cooling Degree Days 0 4  
Month to date cooling degree days 27 30  
Year to date cooling degree days 33 53  
Growing Degree Days 14 (Base 50)    
Moisture  
Dew Point 36 °F    
Average Humidity 38    
Maximum Humidity 61    
Minimum Humidity 14    
Precipitation  
Precipitation 0.00 in 0.01 in 0.13 in (1933)
Month to date precipitation 0.00 0.13  
Year to date precipitation 2.34 5.11  
Since 1 July precipitation 7.72  
Snow  
Snow 0.00 in - - ()
Month to date snowfall 0.0  
Since 1 July snowfall 0.0  
Snow Depth 0.00 in    
Sea Level Pressure  
Sea Level Pressure 29.93 in    
Wind  
Wind Speed 9 mph (SW)    
Max Wind Speed 21 mph    
Max Gust Speed 26 mph    
Visibility 10 miles    
Events      
T = Trace of Precipitation, MM = Missing Value Source: NWS Daily Summary

Daily Weather History Graph

Daily Weather History Graph

Search for Another Location

Airport or City:

Trip Planner

Search our weather history database for the weather conditions in past years. The results will help you decide how hot, cold, wet, or windy it might be!

Date:

Astronomy

May. 11, 2011 Rise Set
Actual Time 5:52 AM PDT 7:45 PM PDT
Civil Twilight 5:25 AM PDT 8:12 PM PDT
Nautical Twilight 4:51 AM PDT 8:46 PM PDT
Astronomical Twilight 4:16 AM PDT 9:21 PM PDT
Moon 1:37 PM PDT (5/11) 1:49 AM PDT (5/11)
Length of Visible Light 14h 47m
Length of Day
13h 52m
First Quarter, 61% of the Moon is Illuminated
May 11
First Quarter
May 17
Full
May 24
Last Quarter
Jun 1
New
Jun 8
First Quarter

Hourly Weather History & Observations

Time (PDT) Temp. Dew Point Humidity Pressure Visibility Wind Dir Wind Speed Gust Speed Precip Events Conditions
12:53 AM 53.1 °F 36.0 °F 52% 29.89 in 10.0 mi SSW 8.1 mph - N/A   Clear
1:53 AM 51.1 °F 36.0 °F 56% 29.88 in 10.0 mi SSW 9.2 mph - N/A   Clear
2:53 AM 50.0 °F 35.1 °F 57% 29.89 in 10.0 mi SSW 8.1 mph - N/A   Clear
3:53 AM 50.0 °F 35.6 °F 58% 29.93 in 10.0 mi SSW 5.8 mph - N/A   Clear
4:53 AM 48.9 °F 36.0 °F 61% 29.90 in 10.0 mi SW 8.1 mph - N/A   Clear
5:53 AM 48.0 °F 36.0 °F 63% 29.91 in 10.0 mi SSW 8.1 mph - N/A   Clear
6:53 AM 54.0 °F 37.0 °F 53% 29.92 in 10.0 mi SSW 6.9 mph - N/A   Clear
7:53 AM 61.0 °F 37.0 °F 41% 29.94 in 10.0 mi Calm Calm - N/A   Clear
8:53 AM 64.9 °F 35.1 °F 33% 29.94 in 10.0 mi Calm Calm - N/A   Clear
9:53 AM 69.1 °F 34.0 °F 27% 29.94 in 10.0 mi Calm Calm - N/A   Clear
10:53 AM 73.9 °F 30.9 °F 21% 29.94 in 10.0 mi Calm Calm - N/A   Clear
11:53 AM 75.0 °F 27.0 °F 17% 29.94 in 10.0 mi SSE 4.6 mph - N/A   Clear
12:53 PM 79.0 °F 26.1 °F 14% 29.92 in 10.0 mi Variable 4.6 mph - N/A   Clear
1:53 PM 81.0 °F 26.1 °F 13% 29.91 in 10.0 mi NW 9.2 mph - N/A   Clear
2:53 PM 79.0 °F 34.0 °F 20% 29.90 in 10.0 mi SW 16.1 mph 26.5 mph N/A   Clear
3:53 PM 79.0 °F 37.9 °F 23% 29.90 in 10.0 mi WSW 17.3 mph 25.3 mph N/A   Clear
4:53 PM 77.0 °F 37.0 °F 24% 29.90 in 10.0 mi SW 18.4 mph - N/A   Clear
5:53 PM 75.0 °F 41.0 °F 29% 29.91 in 10.0 mi WSW 17.3 mph 25.3 mph N/A   Clear
6:53 PM 71.1 °F 45.0 °F 39% 29.93 in 10.0 mi WSW 15.0 mph - N/A   Clear
7:53 PM 66.9 °F 45.0 °F 45% 29.94 in 10.0 mi WSW 13.8 mph - N/A   Clear
8:53 PM 66.9 °F 36.0 °F 32% 29.96 in 10.0 mi WSW 15.0 mph - N/A   Clear
9:53 PM 64.0 °F 41.0 °F 43% 29.97 in 10.0 mi WSW 12.7 mph - N/A   Clear
10:53 PM 63.0 °F 35.1 °F 35% 29.97 in 10.0 mi SW 10.4 mph - N/A   Clear
11:53 PM 62.1 °F 35.1 °F 37% 29.98 in 10.0 mi SSW 8.1 mph - N/A   Clear